User: anonymous   Login
Location: Unspecified
(0.0000°N, 0.0000°E)
Time: 05:36:20
(UTC+02:00)
Language:

ATLAS 3B CENTAUR R/B - Orbit

View from above orbital plane
View from above orbital plane
View from above satellite
View from above satellite

Ground track
Ground track

The orbit data is extracted from the following two-line orbital elements,

1 28118U 03057B   15146.46185199  .00067316  00000-0  11927-2 0  9990
2 28118 028.1304 144.8077 3606214 169.7051 339.9655 08.27729273222982
Epoch (UTC): 26 May 2015 11:05:04
Eccentricity: 0.3606214
inclination: 28.1304°
perigee height: 222 km
apogee height: 7667 km
right ascension of ascending node: 144.8077°
argument of perigee: 169.7051°
revolutions per day: 8.27729273
mean anomaly at epoch: 339.9655°
orbit number at epoch: 22298

The dashed part of the orbit path shows where the satellite is in the earth's shadow,  

DLR